ICEYE-X17

导读 | 豆包AI

ICEYE-X17是美国ICEYE公司运营的合成孔径雷达(SAR)卫星,于2022年5月25日发射升空,属于ICEYE卫星星座的组成部分。作为新一代小卫星,它搭载高性能SAR传感器,可不受昼夜、云雾影响,实现全天时全天候高分辨率地球观测,能提供近乎实时的对地成像服务,支持灾害监测、资源勘探、国防安全等多领域应用,进一步增强了ICEYE星座的重访能力与覆盖范围。

基本信息
目录编号:
52762
目录名称:
ICEYE-X17
国际标识:
2022-057AG
轨道中心:
EARTH
卫星名称:
ICEYE-X17
卫星全名:
--
卫星状态:
已陨落 最后检测时间 2025-08-08
发射日期:
2022-05-25 UTC
国别 :
美国 (US)
星等 :
--
轨道信息
数据来源 国际轨道数据
星历时间: 2025-08-08T10:54:59+0800
轨道信息已过期218天
半长轴: 6537.467km
偏心率: 0.0014376
轨道倾角: 97.561°
近地点辐角 275.837°
升交点赤经 11.670°
平近点角 84.129°
近地点: 149.933km
远地点: 168.731km
周期: 87.675分钟
每日圈数: 16.424365
详细信息
使用方式:
暂无